| time (UTC) | temp F | wind direction | speed MPH | gust MPH | rain 1hr in | rain 24hr in | rain mn in | humidity % | barometer mb |
| 20260506000559 | 49 | 29 | 6.0 | 12.0 | 0.05 | 0.06 | 0.05 | 87 | 1009.7 |
| 20260506000104 | 49 | 47 | 4.0 | 13.0 | 0.05 | 0.06 | 0.05 | 87 | 1009.7 |
| 20260506000001 | 49 | 34 | 4.0 | 13.0 | 0.05 | 0.06 | 0.05 | 87 | 1009.8 |
| 20260505235559 | 49 | 73 | 5.0 | 13.0 | 0.05 | 0.06 | 0.05 | 87 | 1009.8 |
| 20260505235059 | 49 | 33 | 6.0 | 10.0 | 0.05 | 0.06 | 0.05 | 87 | 1009.8 |
| 20260505234601 | 49 | 32 | 5.0 | 14.0 | 0.05 | 0.06 | 0.05 | 87 | 1010.0 |
| 20260505234059 | 49 | 45 | 4.0 | 14.0 | 0.05 | 0.06 | 0.05 | 88 | 1010.0 |
| 20260505233558 | 49 | 38 | 5.0 | 11.0 | 0.05 | 0.06 | 0.05 | 88 | 1010.0 |
| 20260505233127 | 50 | 306 | 5.0 | 12.0 | 0.05 | 0.06 | 0.05 | 88 | 1009.9 |
| 20260505232558 | 50 | 347 | 6.0 | 12.0 | 0.04 | 0.05 | 0.04 | 88 | 1009.9 |
| 20260505232059 | 50 | 43 | 6.0 | 13.0 | 0.03 | 0.04 | 0.03 | 88 | 1010.0 |
| 20260505231559 | 50 | 49 | 5.0 | 13.0 | 0.02 | 0.02 | 0.02 | 88 | 1009.9 |
| 20260505231059 | 50 | 52 | 7.0 | 11.0 | 0.00 | 0.01 | 0.00 | 88 | 1010.0 |
| 20260505230558 | 50 | 69 | 5.0 | 13.0 | 0.00 | 0.01 | 0.00 | 88 | 1010.3 |
| 20260505230059 | 50 | 335 | 7.0 | 13.0 | 0.00 | 0.01 | 0.00 | 88 | 1010.0 |
| 20260505225601 | 50 | 30 | 6.0 | 11.0 | 0.00 | 0.01 | 0.00 | 88 | 1010.0 |
| 20260505225103 | 50 | 49 | 3.0 | 12.0 | 0.00 | 0.01 | 0.00 | 88 | 1010.0 |
| 20260505224559 | 50 | 59 | 6.0 | 12.0 | 0.00 | 0.01 | 0.00 | 88 | 1010.0 |
| 20260505224103 | 50 | 36 | 5.0 | 14.0 | 0.00 | 0.01 | 0.00 | 88 | 1010.0 |
| 20260505223600 | 50 | 53 | 5.0 | 14.0 | 0.00 | 0.01 | 0.00 | 88 | 1009.9 |
| 20260505223102 | 50 | 61 | 5.0 | 14.0 | 0.00 | 0.01 | 0.00 | 88 | 1009.9 |
| 20260505222559 | 50 | 73 | 7.0 | 14.0 | 0.00 | 0.01 | 0.00 | 88 | 1009.9 |
| 20260505222100 | 50 | 53 | 7.0 | 12.0 | 0.00 | 0.01 | 0.00 | 88 | 1009.9 |
| 20260505221604 | 50 | 36 | 5.0 | 12.0 | 0.00 | 0.01 | 0.00 | 88 | 1010.0 |
| 20260505221501 | 50 | 68 | 4.0 | 13.0 | 0.00 | 0.01 | 0.00 | 88 | 1010.1 |
| 20260505221104 | 50 | 338 | 6.0 | 13.0 | 0.00 | 0.01 | 0.00 | 88 | 1010.1 |
| 20260505220559 | 50 | 23 | 8.0 | 14.0 | 0.00 | 0.01 | 0.00 | 88 | 1010.1 |
| 20260505220059 | 50 | 38 | 6.0 | 14.0 | 0.00 | 0.01 | 0.00 | 88 | 1010.1 |
| 20260505215559 | 50 | 29 | 5.0 | 12.0 | 0.00 | 0.01 | 0.01 | 88 | 1010.2 |
| 20260505215101 | 50 | 36 | 4.0 | 13.0 | 0.00 | 0.01 | 0.01 | 88 | 1010.2 |
| 20260505214605 | 50 | 49 | 5.0 | 13.0 | 0.00 | 0.01 | 0.01 | 88 | 1010.1 |
| 20260505214100 | 50 | 340 | 5.0 | 11.0 | 0.00 | 0.01 | 0.01 | 88 | 1010.2 |
| 20260505213559 | 50 | 15 | 5.0 | 12.0 | 0.00 | 0.01 | 0.01 | 88 | 1010.1 |
| 20260505213118 | 50 | 38 | 6.0 | 12.0 | 0.00 | 0.01 | 0.01 | 88 | 1010.2 |
| 20260505212600 | 50 | 36 | 6.0 | 11.0 | 0.00 | 0.01 | 0.01 | 88 | 1010.2 |
| 20260505212100 | 50 | 38 | 3.0 | 11.0 | 0.00 | 0.01 | 0.01 | 88 | 1010.2 |
| 20260505211600 | 50 | 31 | 6.0 | 12.0 | 0.00 | 0.01 | 0.01 | 88 | 1010.2 |
| 20260505211101 | 50 | 328 | 5.0 | 12.0 | 0.00 | 0.01 | 0.01 | 88 | 1010.3 |
| 20260505210559 | 50 | 64 | 4.0 | 12.0 | 0.00 | 0.01 | 0.01 | 88 | 1010.2 |
| 20260505210107 | 50 | 26 | 6.0 | 12.0 | 0.00 | 0.01 | 0.01 | 88 | 1010.2 |
| 20260505210002 | 50 | 36 | 6.0 | 12.0 | 0.00 | 0.01 | 0.01 | 88 | 1010.3 |
| 20260505205601 | 50 | 52 | 5.0 | 13.0 | 0.00 | 0.01 | 0.01 | 88 | 1010.3 |
| 20260505205104 | 50 | 346 | 5.0 | 13.0 | 0.00 | 0.01 | 0.01 | 88 | 1010.3 |
| 20260505204601 | 50 | 30 | 3.0 | 12.0 | 0.00 | 0.01 | 0.01 | 88 | 1010.3 |
| 20260505204103 | 50 | 61 | 4.0 | 9.0 | 0.00 | 0.01 | 0.01 | 88 | 1010.5 |
| 20260505203503 | 50 | 329 | 4.0 | 10.0 | 0.00 | 0.01 | 0.01 | 88 | 1010.4 |
| 20260505203100 | 50 | 52 | 3.0 | 9.0 | 0.00 | 0.01 | 0.01 | 88 | 1010.4 |
| 20260505203004 | 50 | 28 | 4.0 | 9.0 | 0.00 | 0.01 | 0.01 | 88 | 1010.4 |
| 20260505202601 | 50 | 48 | 4.0 | 9.0 | 0.00 | 0.01 | 0.01 | 88 | 1010.4 |
| 20260505202100 | 51 | 69 | 2.0 | 8.0 | 0.00 | 0.01 | 0.01 | 87 | 1010.4 |
| 20260505201601 | 51 | 52 | 4.0 | 11.0 | 0.00 | 0.01 | 0.01 | 87 | 1010.3 |
| 20260505201100 | 51 | 44 | 6.0 | 10.0 | 0.00 | 0.01 | 0.01 | 87 | 1010.4 |
| 20260505200601 | 51 | 50 | 3.0 | 7.0 | 0.00 | 0.01 | 0.01 | 87 | 1010.4 |
| 20260505200003 | 51 | 27 | 2.0 | 9.0 | 0.00 | 0.01 | 0.01 | 88 | 1010.4 |
| 20260505195604 | 51 | 28 | 4.0 | 9.0 | 0.00 | 0.01 | 0.01 | 88 | 1010.4 |
| 20260505195104 | 51 | 50 | 4.0 | 9.0 | 0.00 | 0.01 | 0.01 | 87 | 1010.5 |
| 20260505194602 | 51 | 13 | 3.0 | 6.0 | 0.00 | 0.01 | 0.01 | 87 | 1010.5 |
| 20260505194501 | 51 | 34 | 4.0 | 6.0 | 0.00 | 0.01 | 0.01 | 87 | 1010.5 |
| 20260505194101 | 51 | 36 | 3.0 | 9.0 | 0.00 | 0.01 | 0.01 | 87 | 1010.5 |
| 20260505193600 | 51 | 63 | 3.0 | 10.0 | 0.00 | 0.01 | 0.01 | 87 | 1010.4 |
| 20260505193130 | 51 | 55 | 2.0 | 10.0 | 0.00 | 0.01 | 0.01 | 87 | 1010.4 |
| 20260505192501 | 51 | 53 | 3.0 | 6.0 | 0.00 | 0.01 | 0.01 | 87 | 1010.4 |
| 20260505192002 | 51 | 44 | 2.0 | 6.0 | 0.00 | 0.01 | 0.01 | 87 | 1010.3 |
| 20260505191607 | 51 | 44 | 2.0 | 6.0 | 0.00 | 0.01 | 0.01 | 87 | 1010.3 |
| 20260505191101 | 51 | 55 | 3.0 | 6.0 | 0.00 | 0.01 | 0.01 | 87 | 1010.3 |
| 20260505190600 | 51 | 61 | 3.0 | 7.0 | 0.00 | 0.01 | 0.01 | 87 | 1010.3 |
| 20260505190501 | 51 | 63 | 2.0 | 7.0 | 0.00 | 0.01 | 0.01 | 87 | 1010.3 |
| 20260505190100 | 51 | 36 | 3.0 | 7.0 | 0.00 | 0.01 | 0.01 | 87 | 1010.3 |
| 20260505185600 | 51 | 75 | 2.0 | 7.0 | 0.00 | 0.01 | 0.01 | 87 | 1010.4 |
| 20260505185100 | 51 | 36 | 3.0 | 7.0 | 0.00 | 0.01 | 0.01 | 87 | 1010.3 |
| 20260505184605 | 51 | 45 | 2.0 | 7.0 | 0.00 | 0.01 | 0.01 | 87 | 1010.3 |
| 20260505184100 | 52 | 45 | 2.0 | 9.0 | 0.00 | 0.01 | 0.01 | 87 | 1010.2 |
| 20260505183600 | 52 | 24 | 3.0 | 8.0 | 0.00 | 0.01 | 0.01 | 87 | 1010.3 |
| 20260505183059 | 52 | 30 | 3.0 | 8.0 | 0.00 | 0.01 | 0.01 | 87 | 1010.3 |
| 20260505182559 | 52 | 36 | 2.0 | 5.0 | 0.00 | 0.01 | 0.01 | 87 | 1010.4 |
| 20260505182059 | 52 | 51 | 2.0 | 10.0 | 0.00 | 0.01 | 0.01 | 87 | 1010.3 |
| 20260505181559 | 52 | 36 | 5.0 | 10.0 | 0.00 | 0.01 | 0.01 | 86 | 1010.3 |
| 20260505181100 | 52 | 71 | 3.0 | 10.0 | 0.00 | 0.01 | 0.01 | 86 | 1010.3 |
| 20260505180559 | 52 | 23 | 5.0 | 12.0 | 0.00 | 0.01 | 0.01 | 86 | 1010.2 |
| 20260505180105 | 52 | 19 | 7.0 | 14.0 | 0.00 | 0.01 | 0.01 | 85 | 1010.1 |
| 20260505175600 | 53 | 50 | 4.0 | 11.0 | 0.00 | 0.01 | 0.01 | 85 | 1010.0 |
| 20260505175101 | 53 | 41 | 4.0 | 13.0 | 0.00 | 0.01 | 0.01 | 85 | 1009.9 |
| 20260505174600 | 53 | 47 | 7.0 | 13.0 | 0.00 | 0.01 | 0.01 | 85 | 1009.9 |
| 20260505174502 | 53 | 55 | 7.0 | 13.0 | 0.00 | 0.01 | 0.01 | 84 | 1009.9 |
| 20260505174104 | 53 | 55 | 7.0 | 13.0 | 0.00 | 0.01 | 0.01 | 84 | 1009.9 |
| 20260505173501 | 54 | 87 | 7.0 | 17.0 | 0.00 | 0.01 | 0.01 | 84 | 1009.9 |
| 20260505173101 | 54 | 54 | 8.0 | 14.0 | 0.00 | 0.01 | 0.01 | 85 | 1009.9 |
| 20260505172501 | 54 | 47 | 5.0 | 12.0 | 0.00 | 0.01 | 0.01 | 85 | 1009.9 |
| 20260505172002 | 55 | 53 | 4.0 | 11.0 | 0.00 | 0.01 | 0.01 | 86 | 1009.9 |
| 20260505171601 | 55 | 70 | 4.0 | 11.0 | 0.00 | 0.01 | 0.01 | 86 | 1010.0 |
| 20260505171101 | 55 | 59 | 4.0 | 12.0 | 0.00 | 0.01 | 0.01 | 86 | 1009.9 |
| 20260505171004 | 55 | 53 | 5.0 | 12.0 | 0.00 | 0.01 | 0.01 | 86 | 1009.9 |
| 20260505170601 | 55 | 28 | 6.0 | 12.0 | 0.00 | 0.01 | 0.01 | 86 | 1009.9 |
| 20260505170100 | 55 | 38 | 3.0 | 9.0 | 0.00 | 0.01 | 0.01 | 85 | 1009.9 |
| 20260505170003 | 55 | 342 | 3.0 | 9.0 | 0.00 | 0.01 | 0.01 | 85 | 1009.9 |
| 20260505165600 | 55 | 66 | 2.0 | 10.0 | 0.00 | 0.01 | 0.01 | 85 | 1010.0 |
| 20260505165002 | 55 | 32 | 5.0 | 10.0 | 0.00 | 0.01 | 0.01 | 86 | 1009.9 |
| 20260505164600 | 55 | 52 | 4.0 | 10.0 | 0.00 | 0.01 | 0.01 | 85 | 1010.0 |
| 20260505164501 | 55 | 38 | 4.0 | 10.0 | 0.00 | 0.01 | 0.01 | 85 | 1010.0 |
| 20260505164100 | 55 | 41 | 3.0 | 6.0 | 0.00 | 0.01 | 0.01 | 85 | 1010.0 |
| 20260505163500 | 55 | 18 | 2.0 | 5.0 | 0.00 | 0.01 | 0.01 | 86 | 1010.0 |
| 20260505163001 | 55 | 20 | 2.0 | 9.0 | 0.00 | 0.01 | 0.01 | 85 | 1010.0 |
| 20260505162502 | 55 | 61 | 2.0 | 9.0 | 0.00 | 0.01 | 0.01 | 86 | 1010.0 |
| 20260505162101 | 55 | 53 | 3.0 | 8.0 | 0.00 | 0.01 | 0.01 | 86 | 1010.0 |
| 20260505161603 | 55 | 59 | 3.0 | 8.0 | 0.00 | 0.01 | 0.01 | 86 | 1010.0 |
| 20260505161502 | 55 | 57 | 3.0 | 8.0 | 0.00 | 0.01 | 0.01 | 86 | 1010.0 |
| 20260505161002 | 56 | 11 | 3.0 | 8.0 | 0.00 | 0.01 | 0.01 | 86 | 1010.0 |
| 20260505160501 | 56 | 28 | 2.0 | 8.0 | 0.00 | 0.01 | 0.01 | 86 | 1010.0 |
| 20260505153107 | 55 | 62 | 5.0 | 9.0 | 0.01 | 0.01 | 0.01 | 87 | 1010.2 |
| 20260505152559 | 55 | 42 | 3.0 | 11.0 | 0.01 | 0.01 | 0.01 | 87 | 1010.3 |
| 20260505152100 | 55 | 335 | 5.0 | 11.0 | 0.01 | 0.01 | 0.01 | 87 | 1010.3 |
| 20260505151603 | 55 | 342 | 4.0 | 11.0 | 0.01 | 0.01 | 0.01 | 87 | 1010.3 |
| 20260505151102 | 55 | 38 | 4.0 | 9.0 | 0.01 | 0.01 | 0.01 | 87 | 1010.3 |
| 20260505150559 | 55 | 43 | 5.0 | 9.0 | 0.01 | 0.01 | 0.01 | 87 | 1010.5 |
| 20260505140501 | 58 | 12 | 4.0 | 11.0 | 0.00 | 0.00 | 0.00 | 82 | 1010.7 |
| 20260505140107 | 58 | 304 | 4.0 | 8.0 | 0.00 | 0.00 | 0.00 | 82 | 1010.7 |
| 20260505130111 | 64 | 334 | 3.0 | 8.0 | 0.00 | 0.00 | 0.00 | 63 | 1010.6 |
| 20260505124605 | 64 | 313 | 7.0 | 14.0 | 0.00 | 0.00 | 0.00 | 62 | 1010.6 |
| 20260505124100 | 65 | 324 | 4.0 | 11.0 | 0.00 | 0.00 | 0.00 | 62 | 1010.6 |
| 20260505123602 | 65 | 311 | 3.0 | 10.0 | 0.00 | 0.00 | 0.00 | 62 | 1010.6 |
| 20260505123114 | 66 | 324 | 4.0 | 10.0 | 0.00 | 0.00 | 0.00 | 61 | 1010.6 |
| 20260505122559 | 65 | 336 | 3.0 | 10.0 | 0.00 | 0.00 | 0.00 | 61 | 1010.6 |
| 20260505122059 | 65 | 333 | 4.0 | 12.0 | 0.00 | 0.00 | 0.00 | 60 | 1010.7 |
| 20260505121600 | 65 | 80 | 3.0 | 12.0 | 0.00 | 0.00 | 0.00 | 60 | 1010.7 |
| 20260505121501 | 65 | 29 | 5.0 | 12.0 | 0.00 | 0.00 | 0.00 | 60 | 1010.8 |
| 20260505121101 | 66 | 315 | 5.0 | 12.0 | 0.00 | 0.00 | 0.00 | 60 | 1010.9 |
| 20260505120559 | 66 | 34 | 4.0 | 11.0 | 0.00 | 0.00 | 0.00 | 61 | 1010.9 |
| 20260505120107 | 66 | 248 | 4.0 | 10.0 | 0.00 | 0.00 | 0.00 | 61 | 1011.0 |
| 20260505115559 | 66 | 34 | 4.0 | 9.0 | 0.00 | 0.00 | 0.00 | 61 | 1010.9 |
| 20260505115100 | 65 | 52 | 2.0 | 9.0 | 0.00 | 0.00 | 0.00 | 61 | 1010.9 |
| 20260505114600 | 65 | 42 | 4.0 | 9.0 | 0.00 | 0.00 | 0.00 | 61 | 1011.0 |
| 20260505114059 | 65 | 34 | 2.0 | 5.0 | 0.00 | 0.00 | 0.00 | 63 | 1010.9 |
| 20260505113604 | 65 | 54 | 3.0 | 6.0 | 0.00 | 0.00 | 0.00 | 62 | 1011.0 |
| 20260505113108 | 65 | 47 | 3.0 | 6.0 | 0.00 | 0.00 | 0.00 | 62 | 1011.0 |
| 20260505112559 | 65 | 19 | 2.0 | 5.0 | 0.00 | 0.00 | 0.00 | 63 | 1011.0 |
| 20260505112059 | 65 | 38 | 1.0 | 5.0 | 0.00 | 0.00 | 0.00 | 63 | 1011.0 |
| 20260505111559 | 65 | 331 | 1.0 | 4.0 | 0.00 | 0.00 | 0.00 | 62 | 1011.0 |
| 20260505111100 | 65 | 65 | 2.0 | 4.0 | 0.00 | 0.00 | 0.00 | 62 | 1011.1 |
| 20260505110559 | 65 | 313 | 0.0 | 3.0 | 0.00 | 0.00 | 0.00 | 62 | 1011.1 |
| 20260505110112 | 65 | 57 | 0.0 | 5.0 | 0.00 | 0.00 | 0.00 | 63 | 1011.1 |
| 20260505102101 | 64 | 91 | 1.0 | 5.0 | 0.00 | 0.00 | 0.00 | 66 | 1011.0 |
| 20260505101559 | 64 | 75 | 2.0 | 6.0 | 0.00 | 0.00 | 0.00 | 68 | 1011.0 |
| 20260505101100 | 64 | 78 | 2.0 | 6.0 | 0.00 | 0.00 | 0.00 | 68 | 1011.0 |
| 20260505100600 | 63 | 70 | 2.0 | 6.0 | 0.00 | 0.00 | 0.00 | 69 | 1010.9 |
| 20260505095604 | 64 | 78 | 3.0 | 9.0 | 0.00 | 0.00 | 0.00 | 66 | 1010.9 |
| 20260505095059 | 65 | 11 | 4.0 | 9.0 | 0.00 | 0.00 | 0.00 | 63 | 1010.9 |
| 20260505094559 | 66 | 50 | 2.0 | 8.0 | 0.00 | 0.00 | 0.00 | 58 | 1010.9 |
| 20260505094059 | 66 | 80 | 4.0 | 7.0 | 0.00 | 0.00 | 0.00 | 57 | 1011.0 |
| 20260505093600 | 65 | 43 | 2.0 | 10.0 | 0.00 | 0.00 | 0.00 | 58 | 1011.0 |
| 20260505093100 | 65 | 66 | 4.0 | 10.0 | 0.00 | 0.00 | 0.00 | 57 | 1011.1 |
| 20260505092600 | 66 | 53 | 4.0 | 10.0 | 0.00 | 0.00 | 0.00 | 56 | 1011.2 |
| 20260505092059 | 65 | 55 | 3.0 | 10.0 | 0.00 | 0.00 | 0.00 | 57 | 1011.2 |
| 20260505092007 | 65 | 103 | 3.0 | 10.0 | 0.00 | 0.00 | 0.00 | 57 | 1011.2 |
| 20260505091621 | 65 | 29 | 4.0 | 10.0 | 0.00 | 0.00 | 0.00 | 57 | 1011.2 |
| 20260505091059 | 65 | 15 | 4.0 | 7.0 | 0.00 | 0.00 | 0.00 | 57 | 1011.2 |
| 20260505090559 | 65 | 63 | 4.0 | 6.0 | 0.00 | 0.00 | 0.00 | 57 | 1011.3 |
| 20260505090123 | 65 | 41 | 2.0 | 5.0 | 0.00 | 0.00 | 0.00 | 58 | 1011.5 |
| 20260505085600 | 65 | 49 | 0.0 | 5.0 | 0.00 | 0.00 | 0.00 | 57 | 1011.6 |
| 20260505085501 | 65 | 331 | 0.0 | 5.0 | 0.00 | 0.00 | 0.00 | 56 | 1011.6 |
| 20260505085104 | 65 | 48 | 2.0 | 6.0 | 0.00 | 0.00 | 0.00 | 55 | 1011.6 |
| 20260505084615 | 65 | 84 | 4.0 | 6.0 | 0.00 | 0.00 | 0.00 | 56 | 1011.7 |
| 20260505084100 | 66 | 163 | 1.0 | 9.0 | 0.00 | 0.00 | 0.00 | 56 | 1011.7 |
| 20260505083602 | 66 | 108 | 3.0 | 9.0 | 0.00 | 0.00 | 0.00 | 56 | 1011.7 |
| 20260505083112 | 64 | 345 | 2.0 | 5.0 | 0.00 | 0.00 | 0.00 | 57 | 1011.7 |
| 20260505082600 | 64 | 54 | 3.0 | 6.0 | 0.00 | 0.00 | 0.00 | 58 | 1011.7 |
| 20260505082100 | 64 | 16 | 4.0 | 5.0 | 0.00 | 0.00 | 0.00 | 57 | 1011.7 |
| 20260505081605 | 64 | 78 | 2.0 | 10.0 | 0.00 | 0.00 | 0.00 | 58 | 1011.7 |
| 20260505081059 | 64 | 100 | 2.0 | 10.0 | 0.00 | 0.00 | 0.00 | 59 | 1011.7 |
| 20260505080603 | 65 | 128 | 4.0 | 7.0 | 0.00 | 0.00 | 0.00 | 58 | 1011.7 |
| 20260505080106 | 64 | 38 | 2.0 | 7.0 | 0.00 | 0.00 | 0.00 | 58 | 1011.7 |
| 20260505080004 | 64 | 61 | 3.0 | 7.0 | 0.00 | 0.00 | 0.00 | 58 | 1011.7 |
| 20260505075559 | 64 | 29 | 3.0 | 7.0 | 0.00 | 0.00 | 0.00 | 57 | 1011.7 |
| 20260505075059 | 64 | 30 | 4.0 | 8.0 | 0.00 | 0.00 | 0.00 | 57 | 1011.7 |
| 20260505074559 | 64 | 80 | 0.0 | 5.0 | 0.00 | 0.00 | 0.00 | 59 | 1011.8 |
| 20260505074102 | 63 | 344 | 2.0 | 6.0 | 0.00 | 0.00 | 0.00 | 58 | 1011.8 |
| 20260505073600 | 63 | 57 | 2.0 | 5.0 | 0.00 | 0.00 | 0.00 | 59 | 1011.9 |
| 20260505073103 | 62 | 59 | 2.0 | 8.0 | 0.00 | 0.00 | 0.00 | 59 | 1011.9 |
| 20260505072559 | 61 | 94 | 2.0 | 8.0 | 0.00 | 0.00 | 0.00 | 60 | 1012.0 |
| 20260505072059 | 62 | 331 | 2.0 | 10.0 | 0.00 | 0.00 | 0.00 | 59 | 1011.9 |
| 20260505071615 | 61 | 84 | 5.0 | 10.0 | 0.00 | 0.00 | 0.00 | 61 | 1011.9 |
| 20260505071104 | 61 | 16 | 4.0 | 9.0 | 0.00 | 0.00 | 0.00 | 60 | 1012.0 |
| 20260505070600 | 60 | 28 | 3.0 | 7.0 | 0.00 | 0.00 | 0.00 | 60 | 1012.1 |
| 20260505065559 | 59 | 86 | 2.0 | 9.0 | 0.00 | 0.00 | 0.00 | 62 | 1012.0 |
| 20260505065058 | 59 | 46 | 4.0 | 9.0 | 0.00 | 0.00 | 0.00 | 64 | 1012.1 |
| 20260505064610 | 58 | 51 | 2.0 | 7.0 | 0.00 | 0.00 | 0.00 | 66 | 1012.1 |
| 20260505064101 | 58 | 40 | 3.0 | 6.0 | 0.00 | 0.00 | 0.00 | 67 | 1012.2 |
| 20260505063604 | 57 | 78 | 2.0 | 5.0 | 0.00 | 0.00 | 0.00 | 69 | 1012.2 |
| 20260505063101 | 57 | 73 | 2.0 | 6.0 | 0.00 | 0.00 | 0.00 | 68 | 1012.3 |
| 20260505062559 | 56 | 54 | 2.0 | 6.0 | 0.00 | 0.00 | 0.00 | 67 | 1012.4 |
| 20260505062059 | 56 | 61 | 1.0 | 5.0 | 0.00 | 0.00 | 0.00 | 69 | 1012.4 |
| 20260505061604 | 56 | 36 | 3.0 | 5.0 | 0.00 | 0.00 | 0.00 | 72 | 1012.4 |
| 20260505061059 | 55 | 28 | 3.0 | 6.0 | 0.00 | 0.00 | 0.00 | 73 | 1012.4 |
| 20260505060558 | 55 | 9 | 1.0 | 6.0 | 0.00 | 0.00 | 0.00 | 76 | 1012.5 |
| 20260505060104 | 55 | 30 | 1.0 | 6.0 | 0.00 | 0.00 | 0.00 | 78 | 1012.5 |
| 20260505060001 | 55 | 18 | 2.0 | 6.0 | 0.00 | 0.00 | 0.00 | 78 | 1012.5 |
| 20260505055600 | 54 | 50 | 3.0 | 6.0 | 0.00 | 0.00 | 0.00 | 79 | 1012.5 |
| 20260505055103 | 54 | 53 | 2.0 | 4.0 | 0.00 | 0.00 | 0.00 | 81 | 1012.7 |
| 20260505054606 | 54 | 78 | 1.0 | 4.0 | 0.00 | 0.00 | 0.00 | 82 | 1012.7 |
| 20260505054059 | 54 | 54 | 1.0 | 4.0 | 0.00 | 0.00 | 0.00 | 83 | 1012.7 |
| 20260505053558 | 53 | 61 | 0.0 | 3.0 | 0.00 | 0.00 | 0.00 | 83 | 1012.8 |
| 20260505053103 | 53 | 52 | 1.0 | 3.0 | 0.00 | 0.00 | 0.00 | 84 | 1012.9 |
| 20260505052559 | 53 | 82 | 0.0 | 3.0 | 0.00 | 0.00 | 0.00 | 84 | 1012.9 |
| 20260505052100 | 53 | 47 | 1.0 | 3.0 | 0.00 | 0.00 | 0.00 | 85 | 1012.9 |
| 20260505051559 | 52 | 84 | 0.0 | 2.0 | 0.00 | 0.00 | 0.00 | 86 | 1013.0 |
| 20260505051058 | 52 | 53 | 0.0 | 2.0 | 0.00 | 0.00 | 0.00 | 86 | 1013.0 |
| 20260505050600 | 52 | 45 | 0.0 | 1.0 | 0.00 | 0.00 | 0.00 | 87 | 1012.9 |
| 20260505041605 | 49 | 59 | 0.0 | 1.0 | 0.00 | 0.00 | 0.00 | 87 | 1013.1 |
| 20260505041059 | 49 | 84 | 0.0 | 2.0 | 0.00 | 0.00 | 0.00 | 87 | 1013.1 |
| 20260505040559 | 48 | 123 | 0.0 | 2.0 | 0.00 | 0.00 | 0.00 | 87 | 1013.1 |
| 20260505040001 | 48 | 53 | 0.0 | 0.0 | 0.00 | 0.00 | 0.00 | 87 | 1013.2 |
| 20260505035601 | 48 | 112 | 0.0 | 0.0 | 0.00 | 0.00 | 0.00 | 87 | 1013.2 |
| 20260505035103 | 48 | 315 | 0.0 | 0.0 | 0.00 | 0.00 | 0.00 | 87 | 1013.3 |
| 20260505034601 | 47 | 31 | 0.0 | 0.0 | 0.00 | 0.00 | 0.00 | 87 | 1013.2 |
| 20260505034100 | 47 | 84 | 0.0 | 0.0 | 0.00 | 0.00 | 0.00 | 87 | 1013.2 |
| 20260505033559 | 47 | 131 | 0.0 | 1.0 | 0.00 | 0.00 | 0.00 | 87 | 1013.1 |
| 20260505033100 | 47 | 117 | 0.0 | 1.0 | 0.00 | 0.00 | 0.00 | 87 | 1013.1 |
| 20260505032601 | 47 | 39 | 0.0 | 1.0 | 0.00 | 0.00 | 0.00 | 87 | 1013.1 |
| 20260505032059 | 47 | 59 | 0.0 | 1.0 | 0.00 | 0.00 | 0.00 | 87 | 1013.1 |
| 20260505031559 | 47 | 134 | 0.0 | 1.0 | 0.00 | 0.00 | 0.00 | 87 | 1013.1 |
| 20260505031059 | 47 | 56 | 0.0 | 1.0 | 0.00 | 0.00 | 0.00 | 87 | 1013.1 |
| 20260505030602 | 47 | 329 | 0.0 | 0.0 | 0.00 | 0.00 | 0.00 | 87 | 1013.1 |
| 20260505030502 | 47 | 329 | 0.0 | 0.0 | 0.00 | 0.00 | 0.00 | 87 | 1013.1 |
| 20260505030121 | 47 | 329 | 0.0 | 1.0 | 0.00 | 0.00 | 0.00 | 87 | 1013.1 |
| 20260505030002 | 47 | 329 | 0.0 | 1.0 | 0.00 | 0.00 | 0.00 | 87 | 1013.0 |
| 20260505025558 | 47 | 319 | 0.0 | 1.0 | 0.00 | 0.00 | 0.00 | 87 | 1013.0 |
| 20260505025102 | 47 | 13 | 0.0 | 0.0 | 0.00 | 0.00 | 0.00 | 87 | 1012.9 |
| 20260505024601 | 47 | 128 | 0.0 | 0.0 | 0.00 | 0.00 | 0.00 | 87 | 1013.0 |
| 20260505024059 | 47 | 61 | 0.0 | 2.0 | 0.00 | 0.00 | 0.00 | 87 | 1013.1 |
| 20260505023600 | 48 | 61 | 0.0 | 3.0 | 0.00 | 0.00 | 0.00 | 87 | 1013.1 |
| 20260505023059 | 47 | 62 | 2.0 | 3.0 | 0.00 | 0.00 | 0.00 | 87 | 1013.1 |
| 20260505022600 | 47 | 61 | 1.0 | 3.0 | 0.00 | 0.00 | 0.00 | 87 | 1013.1 |
| 20260505022100 | 47 | 76 | 0.0 | 2.0 | 0.00 | 0.00 | 0.00 | 87 | 1013.1 |
| 20260505021600 | 47 | 123 | 0.0 | 3.0 | 0.00 | 0.00 | 0.00 | 87 | 1013.1 |
| 20260505021059 | 47 | 48 | 0.0 | 3.0 | 0.00 | 0.00 | 0.00 | 87 | 1013.1 |
| 20260505020559 | 47 | 71 | 0.0 | 1.0 | 0.00 | 0.00 | 0.00 | 87 | 1013.1 |
| 20260505015558 | 48 | 38 | 0.0 | 1.0 | 0.00 | 0.00 | 0.00 | 87 | 1013.1 |
| 20260505015058 | 48 | 313 | 0.0 | 1.0 | 0.00 | 0.00 | 0.00 | 87 | 1013.1 |
| 20260505014610 | 48 | 144 | 0.0 | 0.0 | 0.00 | 0.00 | 0.00 | 87 | 1013.1 |
| 20260505014102 | 48 | 144 | 0.0 | 0.0 | 0.00 | 0.00 | 0.00 | 87 | 1013.1 |
| 20260505013558 | 48 | 78 | 0.0 | 0.0 | 0.00 | 0.00 | 0.00 | 87 | 1013.1 |
| 20260505013059 | 48 | 95 | 0.0 | 0.0 | 0.00 | 0.00 | 0.00 | 87 | 1013.2 |
| 20260505012558 | 48 | 70 | 0.0 | 0.0 | 0.00 | 0.00 | 0.00 | 87 | 1013.2 |
| 20260505012059 | 48 | 322 | 0.0 | 0.0 | 0.00 | 0.00 | 0.00 | 87 | 1013.3 |
| 20260505011600 | 48 | 66 | 0.0 | 0.0 | 0.00 | 0.00 | 0.00 | 87 | 1013.2 |
| 20260505011101 | 48 | 86 | 0.0 | 0.0 | 0.00 | 0.00 | 0.00 | 87 | 1013.3 |
| 20260505010559 | 48 | 103 | 0.0 | 1.0 | 0.00 | 0.00 | 0.00 | 87 | 1013.2 |
| 20260505010103 | 49 | 46 | 0.0 | 1.0 | 0.00 | 0.00 | 0.00 | 87 | 1013.2 |
| 20260505010003 | 49 | 61 | 0.0 | 0.0 | 0.00 | 0.00 | 0.00 | 87 | 1013.2 |
| 20260505005604 | 49 | 27 | 0.0 | 0.0 | 0.00 | 0.00 | 0.00 | 87 | 1013.3 |
| 20260505005059 | 49 | 227 | 0.0 | 0.0 | 0.00 | 0.00 | 0.00 | 87 | 1013.3 |
| 20260505004559 | 49 | 199 | 0.0 | 0.0 | 0.00 | 0.00 | 0.00 | 87 | 1013.3 |
| 20260505004104 | 49 | 119 | 0.0 | 0.0 | 0.00 | 0.00 | 0.00 | 87 | 1013.2 |
| 20260505003559 | 50 | 119 | 0.0 | 0.0 | 0.00 | 0.00 | 0.00 | 87 | 1013.2 |
| 20260505003108 | 50 | 119 | 0.0 | 0.0 | 0.00 | 0.00 | 0.00 | 87 | 1013.2 |
| 20260505002559 | 50 | 76 | 0.0 | 1.0 | 0.00 | 0.00 | 0.00 | 87 | 1013.2 |
| 20260505002100 | 50 | 45 | 0.0 | 1.0 | 0.00 | 0.00 | 0.00 | 87 | 1013.2 |
| 20260505001604 | 50 | 64 | 0.0 | 1.0 | 0.00 | 0.00 | 0.00 | 87 | 1013.2 |
| 20260505001100 | 51 | 300 | 0.0 | 1.0 | 0.00 | 0.00 | 0.00 | 87 | 1013.3 |